Seattle, WA
on Sunday, January 13, 2013

Sunday
Previous Day Next Day
Daily Summary
 ActualAverageRecord
Temperature
Mean Temperature °F 42°F  
Max Temperature 36°F 47°F 56°F (1986)
Min Temperature 24°F 37°F 11°F (1950)
Degree Days
Heating Degree Days 35 23  
Month to date heating degree days 347 307  
Since 1 July heating degree days 2098 2245  
Cooling Degree Days 0 0  
Month to date cooling degree days 0 0  
Year to date cooling degree days 0 0  
Moisture
Dew Point 21°F   
Average Humidity 69    
Maximum Humidity 81    
Minimum Humidity 56    
Precipitation
Precipitation 0.00 in 0.18 in 1.63 in (1970)
Month to date precipitation 2.71 2.45  
Year to date precipitation 2.71 2.45  
Snow
Snow 0.00 in in 20.00 in (1950)
Month to date snowfall T  
Since 1 July snowfall 0.6  
Snow Depth 0.00 in   
Wind
Wind Speed 3 mph   
Max Wind Speed 8 mph   
Max Gust Speed 9 mph   
Visibility 10 miles   
Events     

Key: T is trace of precipitation, MM is missing value
Source: NWS Daily Summary
Time(PST)TemperatureDew PointHumidity Pressure Visibility Wind DirectionWind SpeedGust SpeedPrecipitationEvents Conditions
12:53 AM 27.0°F 21.9°F 81% 30.47 in 10.0 miles ESE 5.8 mph - N/A   Scattered Clouds
1:32 AM 26.6°F 21.2°F 80% 30.43 in 10.0 miles SE 5.8 mph - N/A   Mostly Cloudy
1:53 AM 26.1°F 21.0°F 81% 30.47 in 10.0 miles ESE 5.8 mph - N/A   Mostly Cloudy
2:53 AM 27.0°F 21.0°F 78% 30.47 in 10.0 miles ESE 3.5 mph - N/A   Mostly Cloudy
3:53 AM 26.1°F 21.0°F 81% 30.46 in 10.0 miles ESE 4.6 mph - N/A   Mostly Cloudy
4:12 AM 24.8°F 19.4°F 80% 30.42 in 10.0 miles ESE 4.6 mph - N/A   Scattered Clouds
4:53 AM 25.0°F 19.0°F 78% 30.46 in 10.0 miles ESE 3.5 mph - N/A   Partly Cloudy
5:53 AM 24.1°F 19.0°F 81% 30.47 in 10.0 miles SE 5.8 mph - N/A   Partly Cloudy
6:53 AM 25.0°F 19.0°F 78% 30.48 in 10.0 miles ESE 6.9 mph - N/A   Partly Cloudy
7:53 AM 24.1°F 18.0°F 77% 30.50 in 10.0 miles SE 4.6 mph - N/A   Mostly Cloudy
8:53 AM 26.1°F 19.9°F 78% 30.50 in 10.0 miles SE 4.6 mph - N/A   Mostly Cloudy
9:53 AM 28.0°F 19.0°F 69% 30.51 in 10.0 miles ESE 5.8 mph - N/A   Scattered Clouds
10:53 AM 30.9°F 21.9°F 69% 30.51 in 10.0 miles Calm Calm - N/A   Mostly Cloudy
11:53 AM 34.0°F 23.0°F 64% 30.49 in 10.0 miles Calm Calm - N/A   Scattered Clouds
12:53 PM 35.1°F 23.0°F 61% 30.48 in 10.0 miles Calm Calm - N/A   Overcast
1:53 PM 35.1°F 24.1°F 64% 30.48 in 10.0 miles Calm Calm - N/A   Mostly Cloudy
2:53 PM 35.1°F 25.0°F 67% 30.48 in 10.0 miles WNW 3.5 mph - N/A   Mostly Cloudy
3:53 PM 35.1°F 23.0°F 61% 30.48 in 10.0 miles Calm Calm - N/A   Mostly Cloudy
4:53 PM 33.1°F 19.9°F 59% 30.49 in 10.0 miles North 3.5 mph - N/A   Mostly Cloudy
5:53 PM 32.0°F 19.9°F 61% 30.50 in 10.0 miles Calm Calm - N/A   Mostly Cloudy
6:53 PM 30.0°F 21.0°F 69% 30.49 in 10.0 miles Calm Calm - N/A   Partly Cloudy
7:53 PM 32.0°F 21.9°F 66% 30.51 in 10.0 miles Calm Calm - N/A   Mostly Cloudy
8:53 PM 30.9°F 21.9°F 69% 30.51 in 10.0 miles ESE 4.6 mph - N/A   Mostly Cloudy
9:53 PM 28.9°F 21.9°F 75% 30.51 in 10.0 miles ESE 3.5 mph - N/A   Scattered Clouds
10:53 PM 28.9°F 21.9°F 75% 30.52 in 10.0 miles SE 6.9 mph - N/A   Scattered Clouds
11:53 PM 28.9°F 23.0°F 78% 30.50 in 10.0 miles SE 6.9 mph - N/A   Mostly Cloudy
Moon Phase
Jan. 13 Jan. 18 Jan. 26 Feb. 03 Feb. 10
Sunrise:07:53 AM (PST) Moon Rise:08:42 AM (PST)1/13
Sunset:04:43 PM (PST) Moon Set:07:42 PM (PST)1/13

Copyright © 2014 The Weather Underground, Inc.